Find ABS-3A

NORAD ID: 40424 Int'l Des: 2015-010 Owner: AGSL Country: PG operational
HEOCIRCULARGSOGEO

リアルタイム位置

3D地球を読み込み中...

ABS-3Aについて

説明を読み込み中...

次回通過

Passes for default location (London). Set your location on the main map for personalized predictions.

高度履歴

Loading altitude history...

軌道要素

1 40424U 15010A 26105.65555898 -.00000020 00000-0 00000+0 0 9998
2 40424 0.0121 236.7332 0001942 102.1185 97.9871 1.00270684 40744
Epoch: Apr 15, 2026 • Age: 10 hours

現在のステータス

高度 35789.1 km
速度 3.07 km/s
衛星直下点 0.00°N, 3.01°W
打ち上げ日 Mar 2, 2015
運用期間 11.1 years
タイプ other

技術仕様

分類 Payload
質量 1954.00 kg
乾燥質量 1500.00 kg
総質量 1954.00 kg
長さ 4.60 m
直径 2.10 m
スパン 40.00 m
形状 Box + 2 Pan
製造者 BOES
バスタイプ BSS-702SP
フェーズステータス In Orbit
所有者/国 AGSL/PG

Most Searched